Wind_Speed
6 6 6 6 5 6 6 4 4 4 4 3 3 3 3 3 4 6 6 6 7 7 7 8 8 7 8 8 7 7 6 6 6 6 5 5 5 4 4 4 4 4 5 7 8 10 11 13 14
5 6 6 5 5 5 4 3 4 4 3 3 3 3 4 4 5 6 6 7 8 9 10 10 10 10 10 10 9 9 8 7 7 6 6 5 5 4 4 4 4 4 4 5 6 8 9 11 12
3 4 5 4 4 4 3 3 3 4 4 4 4 4 5 5 6 7 7 8 10 11 11 12 12 12 12 12 12 12 11 10 9 8 7 7 6 5 5 4 4 4 3 3 4 5 6 8 10
3 3 4 3 3 3 3 3 4 5 5 6 7 6 6 7 8 9 10 11 11 12 13 13 14 15 14 14 15 15 14 13 12 11 10 9 8 7 7 6 5 4 4 3 3 4 4 6 7
3 3 4 4 3 3 4 5 6 8 8 9 10 10 10 10 10 10 12 12 13 14 14 14 15 16 17 17 17 17 17 17 16 15 13 12 11 10 9 8 7 6 5 4 3 3 3 4 5
4 5 5 5 5 6 7 8 9 10 11 12 13 14 14 14 14 14 15 15 16 16 15 16 17 18 18 20 20 20 20 19 19 18 17 16 14 13 12 10 9 8 7 5 4 4 3 3 3
6 7 7 7 7 9 10 12 12 13 14 15 17 18 19 19 19 19 19 19 19 19 19 18 18 19 18 19 20 21 21 22 22 22 21 20 18 16 15 14 12 11 10 8 7 5 4 4 4
8 9 9 9 10 12 14 15 15 16 18 19 20 21 22 24 24 24 24 24 24 23 23 23 23 21 21 20 21 22 22 22 23 24 23 22 21 20 19 18 16 15 13 12 10 8 7 6 5
10 10 11 12 13 15 16 17 18 20 21 22 23 24 25 26 27 28 28 28 28 29 28 28 29 28 27 26 25 25 24 24 24 24 24 24 22 21 21 20 20 18 17 15 14 12 10 8 7
12 12 14 15 16 17 19 20 21 23 24 25 26 26 27 27 28 29 30 31 32 32 33 34 34 34 34 33 32 32 30 28 27 25 24 25 25 24 23 22 22 22 20 19 17 15 14 12 10
14 15 16 17 18 19 21 22 24 25 26 27 27 28 28 29 29 30 31 32 33 34 34 35 36 36 37 37 38 39 37 35 33 31 29 27 27 26 25 24 25 25 24 22 20 19 18 16 15
15 16 18 19 20 21 23 24 25 26 27 27 28 28 29 29 29 29 30 30 32 33 34 35 36 36 37 38 39 40 41 40 39 37 35 34 33 30 28 27 25 26 27 26 24 22 21 20 19
17 18 19 20 22 23 24 25 26 27 27 27 27 27 27 27 27 27 28 29 30 30 31 32 33 34 35 36 37 38 39 40 41 41 40 38 37 35 34 32 30 28 27 28 27 25 24 23 22
18 19 21 22 23 23 24 25 26 26 26 26 25 25 25 25 25 25 26 27 27 28 29 29 30 30 31 32 33 34 35 37 38 40 41 41 40 39 37 36 34 31 29 28 28 27 26 25 25
19 20 22 22 23 24 24 24 25 25 24 23 23 23 23 22 22 22 23 23 23 24 25 26 27 28 28 28 29 31 32 34 35 36 38 39 41 41 41 40 38 36 33 31 31 29 29 28 27
20 21 22 22 22 23 23 23 23 23 22 21 21 20 20 19 20 20 20 21 21 22 23 23 23 24 25 25 26 27 28 30 32 34 35 36 38 40 41 42 41 40 38 36 34 32 30 30 29
20 21 21 22 21 21 21 21 20 19 19 18 17 17 17 17 18 19 19 20 20 20 20 20 20 20 21 21 22 23 25 27 29 31 33 35 37 38 40 41 42 43 42 40 38 35 33 31 31
20 20 20 20 19 19 18 18 17 16 15 15 15 15 15 16 17 18 19 19 18 18 19 19 18 18 18 18 18 19 21 23 25 28 30 32 34 36 38 40 42 43 43 42 40 38 36 35 33
19 18 18 17 17 16 16 16 14 13 12 12 13 13 15 15 17 18 18 18 18 19 19 19 18 17 16 16 16 17 18 19 21 23 26 29 31 33 35 38 40 42 43 42 42 41 40 39 37
16 15 15 14 14 14 13 13 12 10 10 10 12 13 14 15 16 17 18 19 19 19 19 19 18 17 16 16 16 16 16 16 18 19 21 24 27 29 32 34 37 39 41 42 42 42 42 42 40
13 12 12 12 11 11 11 10 9 8 8 10 12 13 14 15 16 17 18 19 19 20 20 20 19 17 17 16 15 14 13 13 14 16 18 20 23 26 29 32 34 37 39 40 41 41 42 42 42
10 9 9 8 9 9 8 8 7 7 8 10 12 13 13 15 16 16 17 19 20 20 20 20 20 18 17 17 16 15 13 12 12 12 13 16 18 21 24 28 31 34 37 39 40 41 41 42 42
7 6 5 6 6 6 6 6 7 8 9 11 11 12 13 15 15 16 17 19 20 20 20 20 20 20 19 18 17 16 15 13 12 12 11 12 14 16 19 23 27 30 33 37 39 40 41 42 42
3 2 3 5 5 5 5 5 6 7 9 10 11 12 13 14 15 16 18 19 19 20 20 20 20 20 20 19 17 16 15 14 13 12 12 11 11 13 15 17 22 25 29 32 36 38 40 41 42
1 1 3 4 5 5 5 6 6 7 9 9 10 12 13 14 15 16 17 18 19 20 20 21 20 20 21 20 19 18 17 15 15 14 13 12 11 11 12 14 17 20 24 28 32 35 38 40 41
3 3 4 4 4 5 5 6 6 7 9 9 11 12 13 14 15 16 17 18 19 20 20 20 21 21 21 21 20 19 18 17 16 15 14 13 12 11 11 12 14 16 20 23 28 32 35 38 40
4 4 4 4 4 4 5 6 7 8 9 10 11 12 13 14 15 15 16 17 18 19 20 20 21 22 22 22 22 21 20 19 18 17 16 15 13 13 12 12 13 15 17 20 23 27 32 36 39
5 4 4 4 3 4 4 6 7 8 9 10 11 12 13 13 14 15 16 16 17 18 19 20 21 22 22 23 23 23 22 21 20 19 18 17 16 15 14 14 14 15 16 18 20 23 27 30 35
5 5 4 4 4 3 4 5 6 8 9 10 11 11 12 12 13 14 15 16 16 17 19 20 21 22 22 23 23 24 23 22 21 20 19 19 18 17 16 16 16 17 18 19 20 22 24 27 30
6 6 5 5 4 4 4 5 6 7 8 10 11 11 12 12 13 13 14 15 16 17 18 19 21 22 22 23 23 24 24 24 23 22 21 20 20 20 19 19 18 19 19 20 20 22 24 25 28
Wind_Direction
71 55 57 58 58 61 56 49 41 35 23 21 18 7 350 327 304 289 284 269 259 251 244 238 234 230 226 220 215 209 202 196 189 182 178 176 172 172 178 186 199 212 220 225 229 231 232 234 235
68 53 45 49 53 50 47 35 26 22 12 4 356 348 338 324 310 301 290 279 271 266 258 251 242 238 237 234 229 226 222 217 211 206 199 196 194 190 189 194 201 210 219 225 228 229 232 235 236
59 44 38 43 44 34 17 13 9 356 350 348 343 336 325 315 311 307 300 290 282 274 268 261 254 246 243 241 238 236 235 232 228 224 219 216 214 211 208 208 210 215 219 223 226 228 231 234 235
21 10 16 23 10 2 355 335 334 332 329 328 329 326 317 312 309 306 302 301 295 285 274 265 260 254 248 245 243 241 240 238 236 235 232 230 229 227 225 223 223 225 226 226 227 229 230 232 234
331 345 353 348 326 321 324 315 314 316 315 314 315 313 309 307 304 300 297 296 299 298 288 276 269 263 252 247 245 245 245 243 241 240 239 237 236 235 235 234 233 234 233 230 227 226 226 227 230
301 310 323 318 310 307 307 311 310 308 309 309 307 306 302 301 299 296 292 289 289 289 285 280 275 272 264 253 249 248 248 247 246 243 242 242 241 240 239 239 239 239 238 236 232 228 225 219 217
289 297 301 303 301 302 303 306 305 302 301 300 301 300 298 297 295 293 291 287 283 284 282 277 277 273 269 264 258 255 253 250 248 247 244 243 242 242 242 241 241 241 241 240 237 235 229 221 210
280 290 293 294 295 297 301 304 303 300 298 297 298 296 295 295 293 291 288 284 281 279 278 275 274 273 269 266 264 262 259 256 251 250 249 248 246 246 244 243 242 242 242 242 241 239 235 228 218
276 284 287 289 292 296 300 302 301 298 296 297 297 295 294 293 292 290 288 284 281 278 275 273 272 271 269 267 264 264 261 258 258 257 255 253 251 251 249 248 243 241 241 242 241 240 239 234 227
274 280 285 291 294 297 300 301 300 299 298 299 298 297 295 293 291 288 287 284 281 279 277 275 273 270 268 266 264 264 264 261 260 261 259 255 252 251 251 249 246 241 239 240 241 240 239 237 234
274 280 286 292 295 298 300 301 301 301 301 301 300 299 297 295 292 289 287 284 281 280 278 277 275 272 270 267 265 265 265 263 261 260 260 256 253 252 252 252 250 244 239 239 240 239 239 239 237
275 282 288 292 296 299 302 303 303 303 303 304 303 302 300 299 297 294 291 288 286 283 280 278 277 274 272 270 268 267 266 265 263 261 260 258 257 255 256 253 253 249 241 238 239 238 237 237 237
278 284 290 294 298 302 305 305 305 305 306 306 306 305 305 303 301 299 296 294 291 288 286 283 280 277 274 271 269 267 266 264 263 262 261 259 258 258 256 254 253 251 245 241 239 238 238 237 236
281 286 291 295 300 304 306 307 306 307 308 309 310 310 308 307 306 305 302 299 296 292 290 288 285 283 279 275 271 268 266 265 263 262 261 259 258 257 256 254 254 253 249 243 240 239 239 238 237
281 287 291 297 302 305 307 307 308 310 311 313 314 314 313 314 314 313 311 309 307 303 298 294 291 287 283 278 273 269 266 263 262 261 260 259 257 256 255 254 253 252 251 246 244 241 241 241 239
281 287 292 298 302 306 308 308 310 313 315 317 319 320 323 325 326 325 323 321 318 314 309 303 297 292 289 284 278 272 267 263 260 259 258 257 256 255 254 252 252 251 250 249 247 244 244 244 242
281 287 293 298 303 306 309 310 314 317 319 322 326 330 334 337 337 336 333 330 327 325 322 317 311 303 297 290 284 277 271 265 262 259 258 256 255 254 253 251 250 250 250 249 248 246 247 246 245
281 288 293 298 305 308 312 314 318 320 324 331 336 339 342 344 344 343 342 341 339 337 334 330 324 317 309 301 293 285 278 272 266 262 259 257 254 253 252 250 248 248 249 248 248 247 248 247 246
280 287 293 301 308 313 317 319 323 327 334 342 347 349 349 349 350 352 352 351 349 347 344 341 337 332 326 317 307 298 289 281 274 268 262 258 255 253 251 250 249 248 247 247 247 246 247 247 247
280 288 297 307 313 316 321 327 332 340 350 356 358 357 357 356 356 356 355 353 351 351 350 349 346 344 339 333 323 312 301 291 282 275 268 261 257 254 251 249 248 248 247 246 246 246 246 245 246
280 293 305 314 320 324 330 339 349 0 8 8 5 2 0 359 357 356 357 357 356 356 355 354 353 352 349 345 339 330 319 306 295 284 274 266 261 256 252 249 248 248 248 247 247 246 246 245 245
285 297 309 321 329 336 345 356 11 19 19 13 8 5 2 0 359 359 360 360 359 358 358 358 358 356 354 351 350 346 339 330 317 303 289 277 268 262 255 250 249 248 248 248 248 248 247 245 244
285 299 318 333 342 351 7 22 26 28 21 14 10 8 4 2 1 360 358 358 359 360 0 360 360 0 359 356 355 354 351 344 335 325 312 294 279 270 262 255 251 249 248 247 247 247 247 246 245
273 306 347 357 6 21 30 34 34 26 18 14 11 8 4 3 1 1 1 1 2 3 4 4 4 5 5 4 2 0 358 354 348 339 330 316 300 285 273 263 256 253 251 249 247 247 247 246 246
197 68 36 35 38 44 42 44 37 25 18 14 10 8 6 5 4 4 5 6 7 8 9 10 11 12 12 12 11 9 5 -0 355 350 343 334 321 307 292 276 267 260 255 252 249 247 247 247 246
145 97 73 64 58 56 49 45 35 26 22 18 13 9 8 8 9 9 10 10 12 14 15 16 18 18 18 17 16 13 10 7 2 357 352 346 338 328 313 296 284 273 264 257 252 249 248 247 247
135 104 86 77 70 58 45 39 31 22 19 17 13 10 10 10 11 11 12 14 17 19 20 21 22 22 22 21 20 18 15 12 8 3 359 354 347 337 327 314 300 289 278 268 260 255 252 250 248
131 111 98 84 72 54 38 28 21 17 16 15 14 13 14 14 14 14 16 17 19 21 22 22 23 23 23 22 21 19 17 15 12 9 4 358 351 344 336 327 315 302 291 281 271 264 259 254 251
128 113 99 88 70 53 35 27 22 21 18 16 15 15 16 17 17 18 18 19 20 21 21 21 21 21 21 21 20 19 18 16 13 10 6 1 355 347 339 330 322 313 304 295 284 274 267 260 255
118 107 99 93 77 58 45 35 25 24 22 21 20 19 18 17 17 18 18 19 20 21 20 20 20 20 20 19 19 18 17 16 14 10 6 1 356 349 342 334 326 318 311 303 294 284 274 266 259
Height
5933 5932 5932 5932 5932 5931 5930 5929 5928 5927 5926 5925 5923 5922 5921 5920 5920 5921 5917 5914 5914 5913 5912 5911 5910 5910 5910 5909 5909 5908 5908 5907 5906 5906 5905 5904 5903 5902 5902 5901 5900 5900 5900 5899 5899 5899 5900 5900 5901
5934 5933 5933 5932 5932 5931 5931 5929 5928 5927 5926 5924 5923 5922 5921 5919 5918 5917 5914 5913 5912 5911 5910 5909 5909 5908 5908 5908 5908 5907 5907 5906 5906 5905 5904 5904 5903 5902 5901 5901 5900 5899 5899 5899 5898 5898 5898 5898 5899
5934 5933 5934 5933 5932 5931 5931 5929 5928 5927 5925 5924 5923 5921 5920 5918 5917 5915 5913 5912 5911 5909 5908 5908 5907 5906 5906 5906 5906 5906 5905 5905 5904 5904 5903 5903 5902 5901 5901 5900 5899 5899 5898 5898 5897 5897 5897 5897 5897
5934 5934 5934 5933 5932 5931 5930 5929 5927 5926 5925 5923 5922 5920 5918 5917 5915 5913 5911 5910 5908 5907 5906 5905 5904 5903 5903 5903 5903 5903 5903 5902 5902 5902 5901 5901 5901 5900 5900 5899 5899 5898 5898 5897 5897 5896 5896 5896 5896
5934 5934 5934 5932 5931 5930 5929 5928 5926 5924 5923 5921 5920 5918 5916 5915 5913 5912 5910 5908 5906 5905 5903 5901 5901 5900 5899 5899 5899 5899 5899 5899 5899 5899 5899 5899 5899 5898 5898 5898 5898 5897 5897 5896 5896 5896 5895 5895 5895
5933 5933 5933 5932 5931 5930 5928 5926 5924 5923 5921 5919 5917 5916 5914 5912 5911 5909 5907 5905 5903 5902 5900 5898 5897 5896 5895 5895 5894 5894 5894 5894 5895 5895 5895 5895 5895 5896 5896 5896 5896 5896 5896 5896 5895 5895 5895 5894 5894
5933 5932 5931 5930 5929 5928 5926 5924 5922 5920 5919 5917 5915 5913 5911 5909 5907 5906 5904 5902 5900 5898 5896 5895 5893 5892 5891 5890 5890 5889 5889 5889 5890 5890 5890 5891 5891 5892 5893 5893 5894 5894 5894 5894 5894 5894 5894 5894 5893
5930 5931 5929 5928 5927 5926 5924 5922 5920 5918 5916 5914 5912 5910 5908 5906 5903 5901 5899 5898 5896 5894 5893 5891 5889 5888 5887 5886 5886 5885 5885 5884 5885 5885 5885 5886 5887 5887 5888 5889 5890 5891 5892 5892 5893 5893 5893 5893 5893
5928 5929 5927 5926 5925 5923 5921 5919 5917 5914 5912 5910 5908 5906 5904 5901 5899 5897 5894 5893 5891 5889 5887 5886 5884 5883 5882 5881 5881 5880 5880 5880 5880 5880 5880 5881 5882 5883 5884 5885 5886 5888 5888 5889 5890 5891 5892 5892 5892
5926 5926 5925 5924 5922 5920 5917 5915 5913 5911 5908 5906 5903 5901 5899 5896 5894 5892 5889 5887 5884 5882 5881 5879 5878 5877 5876 5875 5875 5874 5874 5875 5875 5875 5875 5876 5877 5878 5879 5880 5881 5883 5884 5885 5887 5888 5889 5890 5890
5923 5923 5922 5920 5918 5916 5914 5912 5909 5906 5904 5901 5899 5896 5894 5891 5888 5885 5883 5880 5878 5875 5873 5871 5870 5869 5868 5868 5867 5867 5868 5868 5869 5870 5870 5871 5871 5872 5873 5874 5876 5878 5879 5881 5882 5884 5885 5887 5888
5921 5920 5918 5917 5915 5913 5910 5908 5905 5902 5900 5897 5894 5891 5888 5885 5882 5879 5876 5873 5870 5868 5866 5864 5862 5861 5860 5859 5859 5859 5859 5860 5861 5863 5864 5865 5866 5867 5868 5869 5871 5872 5873 5875 5877 5879 5881 5882 5884
5918 5916 5915 5913 5911 5909 5907 5904 5901 5898 5895 5892 5889 5885 5882 5879 5876 5873 5869 5866 5863 5861 5858 5856 5854 5853 5852 5851 5850 5850 5851 5852 5853 5854 5855 5857 5859 5861 5862 5864 5865 5866 5867 5869 5871 5873 5876 5878 5879
5915 5913 5912 5910 5908 5906 5903 5900 5897 5894 5890 5887 5884 5881 5877 5874 5870 5867 5863 5860 5857 5854 5851 5849 5847 5845 5844 5843 5842 5842 5842 5843 5844 5845 5847 5849 5851 5853 5855 5857 5859 5860 5861 5863 5865 5868 5870 5872 5874
5912 5911 5909 5907 5905 5902 5900 5897 5893 5890 5886 5883 5880 5876 5873 5869 5866 5862 5858 5855 5851 5848 5845 5842 5840 5838 5836 5835 5835 5834 5834 5835 5836 5837 5838 5840 5842 5844 5847 5849 5852 5853 5855 5857 5859 5862 5864 5866 5868
5909 5908 5906 5904 5902 5899 5898 5894 5890 5886 5883 5879 5876 5873 5869 5865 5862 5858 5854 5851 5847 5843 5840 5837 5834 5832 5830 5828 5827 5827 5826 5827 5828 5829 5830 5831 5833 5835 5838 5841 5843 5846 5848 5851 5853 5856 5858 5860 5862
5906 5905 5903 5901 5899 5896 5893 5890 5886 5883 5879 5876 5873 5870 5866 5863 5859 5855 5851 5848 5844 5840 5836 5832 5829 5826 5824 5822 5820 5820 5819 5819 5820 5820 5822 5823 5825 5827 5829 5832 5835 5837 5840 5843 5846 5849 5852 5854 5856
5904 5902 5900 5898 5895 5892 5889 5886 5883 5880 5877 5874 5871 5867 5864 5861 5857 5853 5850 5846 5842 5838 5834 5830 5826 5823 5820 5817 5815 5814 5813 5813 5813 5813 5814 5815 5816 5818 5820 5823 5826 5828 5831 5835 5838 5841 5844 5847 5849
5900 5899 5897 5895 5892 5889 5886 5883 5880 5877 5874 5872 5869 5866 5863 5859 5856 5852 5849 5845 5841 5837 5832 5828 5824 5820 5816 5813 5811 5809 5808 5807 5806 5806 5806 5807 5808 5810 5812 5814 5817 5820 5823 5826 5830 5833 5836 5839 5842
5897 5896 5894 5891 5889 5886 5883 5880 5878 5875 5873 5870 5868 5865 5862 5859 5855 5852 5848 5844 5840 5835 5831 5826 5822 5818 5814 5811 5808 5805 5803 5802 5801 5800 5800 5800 5801 5803 5804 5806 5809 5811 5814 5817 5821 5824 5828 5831 5834
5893 5892 5891 5888 5886 5883 5881 5879 5876 5874 5872 5870 5867 5864 5862 5858 5855 5851 5847 5843 5839 5835 5830 5826 5821 5817 5813 5810 5806 5803 5800 5799 5797 5796 5795 5795 5795 5796 5797 5799 5801 5803 5806 5809 5812 5815 5819 5823 5826
5890 5890 5888 5886 5884 5882 5880 5878 5876 5873 5871 5869 5867 5864 5861 5858 5855 5851 5847 5843 5839 5834 5830 5825 5821 5816 5812 5809 5805 5801 5799 5796 5794 5792 5791 5790 5790 5790 5791 5792 5794 5796 5798 5801 5804 5807 5810 5814 5817
5888 5887 5886 5884 5882 5881 5879 5878 5877 5874 5871 5869 5867 5864 5861 5858 5855 5851 5847 5843 5839 5834 5830 5825 5821 5816 5812 5808 5804 5801 5798 5795 5792 5790 5788 5787 5786 5785 5785 5786 5787 5789 5791 5793 5795 5798 5801 5805 5808
5886 5886 5884 5883 5881 5881 5879 5878 5876 5874 5872 5869 5867 5864 5861 5858 5855 5851 5847 5843 5839 5834 5830 5825 5821 5816 5812 5807 5803 5800 5797 5794 5791 5789 5787 5785 5783 5782 5781 5781 5782 5783 5784 5785 5787 5790 5793 5796 5799
5885 5885 5884 5883 5881 5881 5879 5877 5877 5874 5872 5869 5867 5864 5861 5858 5855 5851 5847 5843 5839 5835 5830 5826 5821 5816 5812 5808 5804 5800 5797 5793 5790 5788 5785 5783 5781 5779 5778 5777 5777 5777 5778 5779 5780 5782 5784 5786 5789
5883 5884 5884 5883 5882 5881 5879 5877 5877 5874 5872 5869 5867 5864 5861 5858 5855 5851 5847 5844 5840 5835 5831 5827 5822 5817 5813 5809 5804 5800 5797 5793 5790 5787 5784 5782 5779 5777 5776 5774 5773 5772 5772 5772 5773 5774 5776 5778 5780
5882 5882 5882 5882 5881 5881 5879 5878 5877 5874 5872 5869 5867 5864 5861 5858 5855 5852 5848 5844 5841 5837 5832 5828 5824 5819 5815 5810 5806 5802 5798 5794 5790 5787 5784 5781 5778 5776 5773 5771 5770 5769 5768 5767 5767 5767 5768 5769 5770
5882 5882 5882 5881 5881 5880 5880 5878 5877 5874 5872 5870 5867 5864 5861 5858 5855 5852 5849 5845 5842 5838 5834 5830 5825 5821 5817 5812 5808 5803 5799 5795 5791 5787 5784 5780 5777 5774 5772 5769 5767 5765 5763 5762 5761 5760 5760 5760 5761
5881 5881 5881 5881 5881 5880 5879 5880 5876 5874 5872 5870 5867 5864 5862 5859 5856 5853 5850 5846 5843 5839 5835 5831 5827 5823 5818 5814 5809 5805 5800 5796 5792 5788 5784 5780 5776 5773 5770 5767 5764 5761 5758 5756 5755 5753 5752 5752 5752
5880 5880 5881 5881 5880 5879 5879 5881 5876 5874 5872 5869 5867 5865 5862 5859 5856 5853 5850 5847 5844 5841 5837 5833 5829 5824 5820 5816 5811 5806 5802 5797 5793 5788 5784 5780 5776 5772 5767 5764 5760 5757 5754 5751 5748 5746 5745 5744 5743